Time,TemperatureF,DewpointF,PressureIn,WindDirection,WindDirectionDegrees,WindSpeedMPH,WindSpeedGustMPH,Humidity,HourlyPrecipIn,Conditions,Clouds,dailyrainin,SoftwareType,DateUTC
2013-04-04 00:03:00,41.5,16.6,29.23,ENE,68,0.0,0.0,36,0.00,,---,0.00,VWS V14.01,2013-04-04 05:03:00,
2013-04-04 00:09:00,41.5,16.6,29.23,ENE,68,0.0,0.0,36,0.00,,---,0.00,VWS V14.01,2013-04-04 05:09:00,
2013-04-04 00:14:00,41.5,16.6,29.23,ENE,68,0.0,0.0,36,0.00,,---,0.00,VWS V14.01,2013-04-04 05:14:00,
2013-04-04 00:19:00,41.5,16.6,29.23,ENE,68,0.0,0.0,36,0.00,,---,0.00,VWS V14.01,2013-04-04 05:19:00,
2013-04-04 00:24:00,41.5,16.6,29.23,ENE,68,1.3,1.3,36,0.00,,---,0.00,VWS V14.01,2013-04-04 05:24:00,
2013-04-04 00:29:00,41.5,16.6,29.23,ENE,68,0.0,0.0,36,0.00,,---,0.00,VWS V14.01,2013-04-04 05:29:00,
2013-04-04 00:34:00,41.5,16.6,29.23,NE,45,0.0,0.0,36,0.00,,---,0.00,VWS V14.01,2013-04-04 05:34:00,
2013-04-04 00:39:00,41.5,16.6,29.23,NE,45,0.0,0.0,36,0.00,,---,0.00,VWS V14.01,2013-04-04 05:39:00,
2013-04-04 00:44:00,41.5,16.6,29.23,NE,45,0.0,0.0,36,0.00,,---,0.00,VWS V14.01,2013-04-04 05:44:00,
2013-04-04 00:49:00,41.5,16.6,29.23,NE,45,0.0,0.0,36,0.00,,---,0.00,VWS V14.01,2013-04-04 05:49:00,
2013-04-04 00:55:00,41.5,16.6,29.23,NE,45,0.0,0.0,36,0.00,,---,0.00,VWS V14.01,2013-04-04 05:55:00,
2013-04-04 01:00:00,41.5,16.6,29.23,NE,45,0.0,0.0,36,0.00,,---,0.00,VWS V14.01,2013-04-04 06:00:00,
2013-04-04 01:05:00,41.5,16.6,29.23,NE,45,0.0,0.0,36,0.00,,---,0.00,VWS V14.01,2013-04-04 06:05:00,
2013-04-04 01:10:00,41.5,16.6,29.23,NE,45,0.0,0.0,36,0.00,,---,0.00,VWS V14.01,2013-04-04 06:10:00,
2013-04-04 01:15:00,41.5,16.6,29.23,NE,45,0.0,0.0,36,0.00,,---,0.00,VWS V14.01,2013-04-04 06:15:00,
2013-04-04 01:20:00,35.1,14.3,29.23,NE,45,0.0,1.1,42,0.00,,---,0.00,VWS V14.01,2013-04-04 06:20:00,
2013-04-04 01:25:00,35.1,14.3,29.23,NE,45,0.0,0.0,42,0.00,,---,0.00,VWS V14.01,2013-04-04 06:25:00,
2013-04-04 01:30:00,35.1,14.3,29.23,NE,45,0.0,0.0,42,0.00,,---,0.00,VWS V14.01,2013-04-04 06:30:00,
2013-04-04 01:35:00,35.1,14.3,29.23,NE,45,0.0,0.0,42,0.00,,---,0.00,VWS V14.01,2013-04-04 06:35:00,
2013-04-04 01:40:00,35.1,14.3,29.23,NE,45,0.0,0.0,42,0.00,,---,0.00,VWS V14.01,2013-04-04 06:40:00,
2013-04-04 01:45:00,35.1,14.3,29.20,NE,45,0.0,0.0,42,0.00,,---,0.00,VWS V14.01,2013-04-04 06:45:00,
2013-04-04 01:51:00,35.1,14.3,29.20,NE,45,0.0,0.0,42,0.00,,---,0.00,VWS V14.01,2013-04-04 06:51:00,
2013-04-04 01:56:00,35.1,14.3,29.20,NE,45,0.0,0.0,42,0.00,,---,0.00,VWS V14.01,2013-04-04 06:56:00,
2013-04-04 02:01:00,34.2,14.0,29.20,NE,45,0.0,0.0,43,0.00,,---,0.00,VWS V14.01,2013-04-04 07:01:00,
2013-04-04 02:06:00,34.2,14.0,29.20,NE,45,0.0,0.0,43,0.00,,---,0.00,VWS V14.01,2013-04-04 07:06:00,
2013-04-04 02:11:00,34.2,14.0,29.20,ENE,68,0.0,0.0,43,0.00,,---,0.00,VWS V14.01,2013-04-04 07:11:00,
2013-04-04 02:16:00,34.2,14.0,29.20,ENE,68,0.0,0.0,43,0.00,,---,0.00,VWS V14.01,2013-04-04 07:16:00,
2013-04-04 02:21:00,34.2,14.0,29.20,ENE,68,0.0,0.0,43,0.00,,---,0.00,VWS V14.01,2013-04-04 07:21:00,
2013-04-04 02:26:00,34.2,14.0,29.20,ENE,68,0.0,0.0,43,0.00,,---,0.00,VWS V14.01,2013-04-04 07:26:00,
2013-04-04 02:31:00,34.2,14.0,29.20,ENE,68,0.0,0.0,43,0.00,,---,0.00,VWS V14.01,2013-04-04 07:31:00,
2013-04-04 02:36:00,34.2,14.0,29.20,ENE,68,0.0,0.0,43,0.00,,---,0.00,VWS V14.01,2013-04-04 07:36:00,
2013-04-04 02:41:00,34.2,14.0,29.20,ENE,68,0.0,1.1,43,0.00,,---,0.00,VWS V14.01,2013-04-04 07:41:00,
2013-04-04 02:46:00,34.2,14.0,29.20,ENE,68,0.0,0.0,43,0.00,,---,0.00,VWS V14.01,2013-04-04 07:46:00,
2013-04-04 02:51:00,34.2,14.0,29.20,ENE,68,0.0,0.0,43,0.00,,---,0.00,VWS V14.01,2013-04-04 07:51:00,
2013-04-04 02:56:00,34.2,14.0,29.20,ENE,68,0.9,1.1,43,0.00,,---,0.00,VWS V14.01,2013-04-04 07:56:00,
2013-04-04 03:01:00,32.9,13.9,29.17,ENE,68,0.0,0.0,45,0.00,,---,0.00,VWS V14.01,2013-04-04 08:01:00,
2013-04-04 03:06:00,32.9,13.9,29.17,ENE,68,0.0,0.0,45,0.00,,---,0.00,VWS V14.01,2013-04-04 08:06:00,
2013-04-04 03:11:00,32.9,13.9,29.17,ENE,68,0.0,1.1,45,0.00,,---,0.00,VWS V14.01,2013-04-04 08:11:00,
2013-04-04 03:16:00,32.9,13.9,29.17,ENE,68,0.0,0.0,45,0.00,,---,0.00,VWS V14.01,2013-04-04 08:16:00,
2013-04-04 03:21:00,32.9,13.9,29.17,ENE,68,0.0,0.0,45,0.00,,---,0.00,VWS V14.01,2013-04-04 08:21:00,
2013-04-04 03:26:00,32.9,13.9,29.17,ENE,68,0.0,0.0,45,0.00,,---,0.00,VWS V14.01,2013-04-04 08:26:00,
2013-04-04 03:31:00,32.9,13.9,29.17,ENE,68,0.0,0.0,45,0.00,,---,0.00,VWS V14.01,2013-04-04 08:31:00,
2013-04-04 03:36:00,32.9,13.9,29.17,ENE,68,0.0,0.0,45,0.00,,---,0.00,VWS V14.01,2013-04-04 08:36:00,
2013-04-04 03:42:00,32.9,13.9,29.17,ENE,68,0.0,0.0,45,0.00,,---,0.00,VWS V14.01,2013-04-04 08:42:00,
2013-04-04 03:47:00,32.9,13.9,29.17,ENE,68,0.0,0.0,45,0.00,,---,0.00,VWS V14.01,2013-04-04 08:47:00,
2013-04-04 03:52:00,32.9,13.9,29.17,ENE,68,0.0,0.0,45,0.00,,---,0.00,VWS V14.01,2013-04-04 08:52:00,
2013-04-04 03:57:00,32.9,13.9,29.17,ENE,68,0.0,0.0,45,0.00,,---,0.00,VWS V14.01,2013-04-04 08:57:00,
2013-04-04 04:02:00,32.9,13.9,29.17,ENE,68,0.0,0.0,45,0.00,,---,0.00,VWS V14.01,2013-04-04 09:02:00,
2013-04-04 04:07:00,32.9,13.9,29.17,ENE,68,0.0,0.0,45,0.00,,---,0.00,VWS V14.01,2013-04-04 09:07:00,
2013-04-04 04:12:00,32.9,13.9,29.17,ENE,68,0.0,0.0,45,0.00,,---,0.00,VWS V14.01,2013-04-04 09:12:00,
2013-04-04 04:17:00,32.9,13.9,29.17,ENE,68,0.0,0.0,45,0.00,,---,0.00,VWS V14.01,2013-04-04 09:17:00,
2013-04-04 04:22:00,32.9,13.9,29.17,ENE,68,0.0,0.0,45,0.00,,---,0.00,VWS V14.01,2013-04-04 09:22:00,
2013-04-04 04:27:00,32.9,13.9,29.17,ENE,68,0.0,0.0,45,0.00,,---,0.00,VWS V14.01,2013-04-04 09:27:00,
2013-04-04 04:33:00,32.9,13.9,29.17,ENE,68,0.0,0.0,45,0.00,,---,0.00,VWS V14.01,2013-04-04 09:33:00,
2013-04-04 04:38:00,32.9,13.9,29.17,ENE,68,0.0,0.0,45,0.00,,---,0.00,VWS V14.01,2013-04-04 09:38:00,
2013-04-04 04:43:00,32.9,13.9,29.17,ENE,68,0.0,0.0,45,0.00,,---,0.00,VWS V14.01,2013-04-04 09:43:00,
2013-04-04 04:48:00,32.9,13.9,29.17,ENE,68,0.0,0.0,45,0.00,,---,0.00,VWS V14.01,2013-04-04 09:48:00,
2013-04-04 04:53:00,32.9,13.9,29.17,ENE,68,0.9,1.1,45,0.00,,---,0.00,VWS V14.01,2013-04-04 09:53:00,
2013-04-04 04:58:00,32.9,13.9,29.17,ENE,68,0.0,0.0,45,0.00,,---,0.00,VWS V14.01,2013-04-04 09:58:00,
2013-04-04 05:03:00,32.9,13.9,29.17,ENE,68,0.0,0.0,45,0.00,,---,0.00,VWS V14.01,2013-04-04 10:03:00,
2013-04-04 05:08:00,32.9,13.9,29.17,ENE,68,0.0,0.0,45,0.00,,---,0.00,VWS V14.01,2013-04-04 10:08:00,
2013-04-04 05:13:00,32.9,13.9,29.17,ENE,68,0.0,0.0,45,0.00,,---,0.00,VWS V14.01,2013-04-04 10:13:00,
2013-04-04 05:18:00,32.9,13.9,29.17,ENE,68,0.0,0.0,45,0.00,,---,0.00,VWS V14.01,2013-04-04 10:18:00,
2013-04-04 05:23:00,32.9,13.9,29.17,ENE,68,0.0,0.0,45,0.00,,---,0.00,VWS V14.01,2013-04-04 10:23:00,
2013-04-04 05:28:00,32.9,13.9,29.17,ENE,68,0.0,0.0,45,0.00,,---,0.00,VWS V14.01,2013-04-04 10:28:00,
2013-04-04 05:33:00,32.9,13.9,29.17,ENE,68,0.0,0.0,45,0.00,,---,0.00,VWS V14.01,2013-04-04 10:33:00,
2013-04-04 05:39:00,32.9,13.9,29.17,ENE,68,0.0,0.0,45,0.00,,---,0.00,VWS V14.01,2013-04-04 10:39:00,
2013-04-04 05:44:00,32.9,13.9,29.17,ENE,68,0.0,0.0,45,0.00,,---,0.00,VWS V14.01,2013-04-04 10:44:00,
2013-04-04 05:49:00,32.9,13.9,29.17,ENE,68,0.0,0.0,45,0.00,,---,0.00,VWS V14.01,2013-04-04 10:49:00,
2013-04-04 05:54:00,30.0,14.5,29.17,ENE,68,0.0,0.0,52,0.00,,---,0.00,VWS V14.01,2013-04-04 10:54:00,
2013-04-04 05:59:00,30.0,14.5,29.17,ENE,68,0.0,0.0,52,0.00,,---,0.00,VWS V14.01,2013-04-04 10:59:00,
2013-04-04 06:04:00,30.0,14.5,29.17,ENE,68,0.0,0.0,52,0.00,,---,0.00,VWS V14.01,2013-04-04 11:04:00,
2013-04-04 06:09:00,30.0,14.5,29.17,ENE,68,0.0,0.0,52,0.00,,---,0.00,VWS V14.01,2013-04-04 11:09:00,
2013-04-04 06:14:00,30.0,14.5,29.17,ENE,68,0.0,0.0,52,0.00,,---,0.00,VWS V14.01,2013-04-04 11:14:00,
2013-04-04 06:19:00,30.0,14.5,29.17,ENE,68,0.0,0.0,52,0.00,,---,0.00,VWS V14.01,2013-04-04 11:19:00,
2013-04-04 06:25:00,30.0,14.5,29.17,ENE,68,0.0,0.0,52,0.00,,---,0.00,VWS V14.01,2013-04-04 11:25:00,
2013-04-04 06:30:00,29.8,14.8,29.17,ENE,68,0.0,0.0,53,0.00,,---,0.00,VWS V14.01,2013-04-04 11:30:00,
2013-04-04 06:35:00,29.8,14.8,29.17,ENE,68,0.0,0.0,53,0.00,,---,0.00,VWS V14.01,2013-04-04 11:35:00,
2013-04-04 06:40:00,29.8,14.8,29.17,ENE,68,0.0,0.0,53,0.00,,---,0.00,VWS V14.01,2013-04-04 11:40:00,
2013-04-04 06:45:00,29.8,14.8,29.17,ENE,68,0.0,0.0,53,0.00,,---,0.00,VWS V14.01,2013-04-04 11:45:00,
2013-04-04 06:50:00,29.8,14.8,29.17,ENE,68,0.0,0.0,53,0.00,,---,0.00,VWS V14.01,2013-04-04 11:50:00,
2013-04-04 06:55:00,29.8,14.8,29.17,ENE,68,0.0,0.0,53,0.00,,---,0.00,VWS V14.01,2013-04-04 11:55:00,
2013-04-04 07:00:00,29.8,14.8,29.17,ENE,68,0.0,0.0,53,0.00,,---,0.00,VWS V14.01,2013-04-04 12:00:00,
2013-04-04 07:05:00,29.8,14.8,29.17,ENE,68,0.0,0.0,53,0.00,,---,0.00,VWS V14.01,2013-04-04 12:05:00,
2013-04-04 07:10:00,29.8,14.8,29.17,ENE,68,0.0,0.0,53,0.00,,---,0.00,VWS V14.01,2013-04-04 12:10:00,
2013-04-04 07:15:00,29.8,14.8,29.17,ENE,68,0.0,0.0,53,0.00,,---,0.00,VWS V14.01,2013-04-04 12:15:00,
2013-04-04 07:20:00,29.8,14.8,29.17,ENE,68,0.0,0.0,53,0.00,,---,0.00,VWS V14.01,2013-04-04 12:20:00,
2013-04-04 07:25:00,29.8,14.8,29.17,ENE,68,0.0,0.0,53,0.00,,---,0.00,VWS V14.01,2013-04-04 12:25:00,
2013-04-04 07:30:00,29.8,14.8,29.17,ENE,68,0.0,0.0,53,0.00,,---,0.00,VWS V14.01,2013-04-04 12:30:00,
2013-04-04 07:36:00,29.8,14.8,29.17,ENE,68,0.0,0.0,53,0.00,,---,0.00,VWS V14.01,2013-04-04 12:36:00,
2013-04-04 07:41:00,29.8,14.8,29.17,ENE,68,0.0,0.0,53,0.00,,---,0.00,VWS V14.01,2013-04-04 12:41:00,
2013-04-04 07:46:00,29.8,14.8,29.17,ENE,68,0.0,0.0,53,0.00,,---,0.00,VWS V14.01,2013-04-04 12:46:00,
2013-04-04 07:51:00,29.8,14.8,29.17,ENE,68,0.0,0.0,53,0.00,,---,0.00,VWS V14.01,2013-04-04 12:51:00,
2013-04-04 07:56:00,29.8,14.8,29.17,ENE,68,0.0,0.0,53,0.00,,---,0.00,VWS V14.01,2013-04-04 12:56:00,
2013-04-04 08:01:00,29.8,14.8,29.17,NE,45,0.0,0.0,53,0.00,,---,0.00,VWS V14.01,2013-04-04 13:01:00,
2013-04-04 08:06:00,29.8,14.8,29.17,NE,45,0.0,0.0,53,0.00,,---,0.00,VWS V14.01,2013-04-04 13:06:00,
2013-04-04 08:11:00,29.8,14.8,29.17,NNW,338,0.0,0.0,53,0.00,,---,0.00,VWS V14.01,2013-04-04 13:11:00,
2013-04-04 08:16:00,29.8,14.8,29.14,ENE,68,1.1,2.2,53,0.00,,---,0.00,VWS V14.01,2013-04-04 13:16:00,
2013-04-04 08:21:00,29.8,14.8,29.14,ENE,68,0.0,0.0,53,0.00,,---,0.00,VWS V14.01,2013-04-04 13:21:00,
2013-04-04 08:26:00,29.8,14.8,29.14,East,90,0.0,0.0,53,0.00,,---,0.00,VWS V14.01,2013-04-04 13:26:00,
2013-04-04 08:31:00,29.8,14.8,29.14,WNW,292,0.0,0.0,53,0.00,,---,0.00,VWS V14.01,2013-04-04 13:31:00,
2013-04-04 08:36:00,29.8,14.8,29.14,WNW,292,0.0,0.0,53,0.00,,---,0.00,VWS V14.01,2013-04-04 13:36:00,
2013-04-04 08:41:00,29.8,14.8,29.14,WNW,292,0.0,0.0,53,0.00,,---,0.00,VWS V14.01,2013-04-04 13:41:00,
2013-04-04 08:46:00,29.8,14.8,29.14,WNW,292,0.0,0.0,53,0.00,,---,0.00,VWS V14.01,2013-04-04 13:46:00,
2013-04-04 08:51:00,29.8,14.8,29.14,WNW,292,0.0,1.1,53,0.00,,---,0.00,VWS V14.01,2013-04-04 13:51:00,
2013-04-04 08:56:00,29.8,14.8,29.14,WNW,292,0.0,0.0,53,0.00,,---,0.00,VWS V14.01,2013-04-04 13:56:00,
2013-04-04 09:01:00,44.2,24.8,29.14,WNW,292,0.0,0.9,46,0.00,,---,0.00,VWS V14.01,2013-04-04 14:01:00,
2013-04-04 09:06:00,45.5,24.9,29.14,WNW,292,2.0,2.0,44,0.00,,---,0.00,VWS V14.01,2013-04-04 14:06:00,
2013-04-04 09:11:00,46.2,25.0,29.14,WNW,292,1.6,1.6,43,0.00,,---,0.00,VWS V14.01,2013-04-04 14:11:00,
2013-04-04 09:16:00,46.2,25.0,29.14,WNW,292,2.0,2.0,43,0.00,,---,0.00,VWS V14.01,2013-04-04 14:16:00,
2013-04-04 09:21:00,46.2,25.0,29.14,WNW,292,2.0,2.2,43,0.00,,---,0.00,VWS V14.01,2013-04-04 14:21:00,
2013-04-04 09:26:00,46.2,25.0,29.14,WNW,292,1.3,1.3,43,0.00,,---,0.00,VWS V14.01,2013-04-04 14:26:00,
2013-04-04 09:31:00,46.2,25.0,29.14,WNW,292,0.0,0.0,43,0.00,,---,0.00,VWS V14.01,2013-04-04 14:31:00,
2013-04-04 09:36:00,46.2,25.0,29.14,WNW,292,0.0,1.3,43,0.00,,---,0.00,VWS V14.01,2013-04-04 14:36:00,
2013-04-04 09:42:00,46.2,25.0,29.14,WNW,292,0.0,0.0,43,0.00,,---,0.00,VWS V14.01,2013-04-04 14:42:00,
2013-04-04 09:47:00,46.2,25.0,29.14,WNW,292,0.9,0.9,43,0.00,,---,0.00,VWS V14.01,2013-04-04 14:47:00,
2013-04-04 09:52:00,46.2,25.0,29.14,WNW,292,0.9,1.1,43,0.00,,---,0.00,VWS V14.01,2013-04-04 14:52:00,
2013-04-04 09:57:00,46.2,25.0,29.14,WNW,292,1.3,1.3,43,0.00,,---,0.00,VWS V14.01,2013-04-04 14:57:00,
2013-04-04 10:02:00,46.2,25.0,29.12,WNW,292,0.0,1.1,43,0.00,,---,0.00,VWS V14.01,2013-04-04 15:02:00,
2013-04-04 10:07:00,46.2,25.0,29.12,WNW,292,2.2,2.2,43,0.00,,---,0.00,VWS V14.01,2013-04-04 15:07:00,
2013-04-04 10:12:00,46.2,25.0,29.12,WNW,292,2.5,2.5,43,0.00,,---,0.00,VWS V14.01,2013-04-04 15:12:00,
2013-04-04 10:17:00,46.2,25.0,29.12,WNW,292,2.0,3.1,43,0.00,,---,0.00,VWS V14.01,2013-04-04 15:17:00,
2013-04-04 10:22:00,46.2,25.0,29.12,West,270,1.6,1.6,43,0.00,,---,0.00,VWS V14.01,2013-04-04 15:22:00,
2013-04-04 10:27:00,46.2,25.0,29.12,West,270,1.1,1.1,43,0.00,,---,0.00,VWS V14.01,2013-04-04 15:27:00,
2013-04-04 10:33:00,46.2,25.0,29.12,West,270,2.5,2.5,43,0.00,,---,0.00,VWS V14.01,2013-04-04 15:33:00,
2013-04-04 10:38:00,46.2,25.0,29.12,West,270,2.5,2.5,43,0.00,,---,0.00,VWS V14.01,2013-04-04 15:38:00,
2013-04-04 10:43:00,46.2,25.0,29.12,West,270,1.1,2.2,43,0.00,,---,0.00,VWS V14.01,2013-04-04 15:43:00,
2013-04-04 10:48:00,46.2,25.0,29.12,West,270,3.6,3.6,43,0.00,,---,0.00,VWS V14.01,2013-04-04 15:48:00,
2013-04-04 10:53:00,56.1,28.9,29.12,West,270,1.3,2.0,35,0.00,,---,0.00,VWS V14.01,2013-04-04 15:53:00,
2013-04-04 10:58:00,56.8,29.5,29.12,West,270,2.7,2.7,35,0.00,,---,0.00,VWS V14.01,2013-04-04 15:58:00,
2013-04-04 11:03:00,56.8,29.5,29.12,West,270,1.6,5.4,35,0.00,,---,0.00,VWS V14.01,2013-04-04 16:03:00,
2013-04-04 11:08:00,56.8,29.5,29.12,West,270,2.5,2.5,35,0.00,,---,0.00,VWS V14.01,2013-04-04 16:08:00,
2013-04-04 11:13:00,57.2,29.1,29.12,West,270,2.0,2.0,34,0.00,,---,0.00,VWS V14.01,2013-04-04 16:13:00,
2013-04-04 11:18:00,57.2,29.1,29.12,West,270,2.0,2.9,34,0.00,,---,0.00,VWS V14.01,2013-04-04 16:18:00,
2013-04-04 11:23:00,57.2,29.1,29.12,West,270,2.7,2.7,34,0.00,,---,0.00,VWS V14.01,2013-04-04 16:23:00,
2013-04-04 11:28:00,57.2,29.1,29.12,West,270,0.0,0.0,34,0.00,,---,0.00,VWS V14.01,2013-04-04 16:28:00,
2013-04-04 11:33:00,58.6,30.4,29.12,West,270,2.5,2.5,34,0.00,,---,0.00,VWS V14.01,2013-04-04 16:33:00,
2013-04-04 11:38:00,58.5,30.2,29.12,West,270,1.3,1.3,34,0.00,,---,0.00,VWS V14.01,2013-04-04 16:38:00,
2013-04-04 11:43:00,59.0,30.0,29.12,West,270,2.0,2.0,33,0.00,,---,0.00,VWS V14.01,2013-04-04 16:43:00,
2013-04-04 11:48:00,58.6,29.6,29.12,West,270,3.1,3.1,33,0.00,,---,0.00,VWS V14.01,2013-04-04 16:48:00,
2013-04-04 11:53:00,58.6,29.6,29.12,West,270,2.7,2.7,33,0.00,,---,0.00,VWS V14.01,2013-04-04 16:53:00,
2013-04-04 11:58:00,58.6,29.6,29.09,West,270,1.3,1.3,33,0.00,,---,0.00,VWS V14.01,2013-04-04 16:58:00,
2013-04-04 12:04:00,58.6,29.6,29.09,West,270,0.0,0.0,33,0.00,,---,0.00,VWS V14.01,2013-04-04 17:04:00,
2013-04-04 12:09:00,60.6,30.6,29.09,West,270,2.0,2.0,32,0.00,,---,0.00,VWS V14.01,2013-04-04 17:09:00,
2013-04-04 12:14:00,60.6,30.6,29.12,West,270,1.1,1.3,32,0.00,,---,0.00,VWS V14.01,2013-04-04 17:14:00,
2013-04-04 12:19:00,61.9,31.7,29.12,West,270,1.6,1.6,32,0.00,,---,0.00,VWS V14.01,2013-04-04 17:19:00,
2013-04-04 12:24:00,61.9,30.9,29.12,West,270,2.5,2.7,31,0.00,,---,0.00,VWS V14.01,2013-04-04 17:24:00,
2013-04-04 12:29:00,62.2,31.2,29.09,West,270,2.9,2.9,31,0.00,,---,0.00,VWS V14.01,2013-04-04 17:29:00,
2013-04-04 12:34:00,62.6,31.6,29.09,West,270,1.6,1.6,31,0.00,,---,0.00,VWS V14.01,2013-04-04 17:34:00,
2013-04-04 12:39:00,63.5,32.3,29.09,West,270,0.0,1.3,31,0.00,,---,0.00,VWS V14.01,2013-04-04 17:39:00,
2013-04-04 12:45:00,62.8,30.9,29.09,West,270,3.1,3.1,30,0.00,,---,0.00,VWS V14.01,2013-04-04 17:45:00,
2013-04-04 12:49:00,62.6,30.8,29.09,West,270,1.6,1.6,30,0.00,,---,0.00,VWS V14.01,2013-04-04 17:49:00,
2013-04-04 12:55:00,62.4,30.6,29.09,West,270,2.5,2.5,30,0.00,,---,0.00,VWS V14.01,2013-04-04 17:55:00,
2013-04-04 13:00:00,62.2,30.5,29.09,West,270,2.0,2.0,30,0.00,,---,0.00,VWS V14.01,2013-04-04 18:00:00,
2013-04-04 13:05:00,62.2,29.6,29.09,West,270,0.0,0.0,29,0.00,,---,0.00,VWS V14.01,2013-04-04 18:05:00,
2013-04-04 13:10:00,63.0,30.2,29.09,West,270,1.3,1.3,29,0.00,,---,0.00,VWS V14.01,2013-04-04 18:10:00,
2013-04-04 13:15:00,62.1,29.5,29.09,West,270,2.7,2.7,29,0.00,,---,0.00,VWS V14.01,2013-04-04 18:15:00,
2013-04-04 13:20:00,61.9,30.1,29.09,West,270,2.7,2.7,30,0.00,,---,0.00,VWS V14.01,2013-04-04 18:20:00,
2013-04-04 13:25:00,62.1,29.5,29.09,West,270,2.7,2.7,29,0.00,,---,0.00,VWS V14.01,2013-04-04 18:25:00,
2013-04-04 13:30:00,61.7,29.1,29.06,West,270,1.6,1.6,29,0.00,,---,0.00,VWS V14.01,2013-04-04 18:30:00,
2013-04-04 13:35:00,61.2,29.5,29.06,West,270,1.3,1.6,30,0.00,,---,0.00,VWS V14.01,2013-04-04 18:35:00,
2013-04-04 13:40:00,61.0,29.4,29.06,West,270,1.6,1.6,30,0.00,,---,0.00,VWS V14.01,2013-04-04 18:40:00,
2013-04-04 13:46:00,60.8,28.4,29.06,West,270,0.0,0.0,29,0.00,,---,0.00,VWS V14.01,2013-04-04 18:46:00,
2013-04-04 13:51:00,60.4,28.9,29.06,West,270,1.1,1.6,30,0.00,,---,0.00,VWS V14.01,2013-04-04 18:51:00,
2013-04-04 13:56:00,60.4,29.7,29.06,West,270,2.7,2.7,31,0.00,,---,0.00,VWS V14.01,2013-04-04 18:56:00,
2013-04-04 14:01:00,60.4,29.7,29.06,West,270,2.5,4.0,31,0.00,,---,0.00,VWS V14.01,2013-04-04 19:01:00,
2013-04-04 14:06:00,60.4,29.7,29.06,West,270,2.2,2.2,31,0.00,,---,0.00,VWS V14.01,2013-04-04 19:06:00,
2013-04-04 14:11:00,60.4,28.9,29.06,West,270,1.6,1.6,30,0.00,,---,0.00,VWS V14.01,2013-04-04 19:11:00,
2013-04-04 14:16:00,60.4,29.7,29.06,West,270,2.9,3.1,31,0.00,,---,0.00,VWS V14.01,2013-04-04 19:16:00,
2013-04-04 14:21:00,60.6,29.8,29.06,West,270,1.3,1.3,31,0.00,,---,0.00,VWS V14.01,2013-04-04 19:21:00,
2013-04-04 14:26:00,60.6,30.6,29.06,WSW,248,1.6,4.5,32,0.00,,---,0.00,VWS V14.01,2013-04-04 19:26:00,
2013-04-04 14:31:00,60.8,30.0,29.06,WSW,248,0.0,0.0,31,0.00,,---,0.00,VWS V14.01,2013-04-04 19:31:00,
2013-04-04 14:36:00,61.3,30.5,29.06,WSW,248,2.9,2.9,31,0.00,,---,0.00,VWS V14.01,2013-04-04 19:36:00,
2013-04-04 14:41:00,61.3,30.5,29.06,WSW,248,2.9,2.9,31,0.00,,---,0.00,VWS V14.01,2013-04-04 19:41:00,
2013-04-04 14:46:00,61.3,31.2,29.06,WSW,248,2.0,2.0,32,0.00,,---,0.00,VWS V14.01,2013-04-04 19:46:00,
2013-04-04 14:51:00,61.9,31.7,29.06,WSW,248,3.1,3.1,32,0.00,,---,0.00,VWS V14.01,2013-04-04 19:51:00,
2013-04-04 14:56:00,61.9,31.7,29.06,WSW,248,4.0,4.0,32,0.00,,---,0.00,VWS V14.01,2013-04-04 19:56:00,
2013-04-04 15:01:00,61.7,31.6,29.06,WSW,248,6.3,6.3,32,0.00,,---,0.00,VWS V14.01,2013-04-04 20:01:00,
2013-04-04 15:06:00,61.5,32.2,29.06,WSW,248,2.9,2.9,33,0.00,,---,0.00,VWS V14.01,2013-04-04 20:06:00,
2013-04-04 15:11:00,61.7,32.3,29.06,West,270,2.0,2.0,33,0.00,,---,0.00,VWS V14.01,2013-04-04 20:11:00,
2013-04-04 15:16:00,61.9,33.2,29.03,West,270,1.1,1.1,34,0.00,,---,0.00,VWS V14.01,2013-04-04 20:16:00,
2013-04-04 15:21:00,62.1,33.4,29.03,WNW,292,2.9,3.1,34,0.00,,---,0.00,VWS V14.01,2013-04-04 20:21:00,
2013-04-04 15:26:00,62.1,32.6,29.03,WNW,292,0.0,4.0,33,0.00,,---,0.00,VWS V14.01,2013-04-04 20:26:00,
2013-04-04 15:32:00,62.2,33.5,29.03,WNW,292,4.3,4.3,34,0.00,,---,0.00,VWS V14.01,2013-04-04 20:32:00,
2013-04-04 15:37:00,62.4,33.7,29.03,West,270,4.7,4.7,34,0.00,,---,0.00,VWS V14.01,2013-04-04 20:37:00,
2013-04-04 15:42:00,62.1,33.4,29.03,SW,225,4.0,4.0,34,0.00,,---,0.00,VWS V14.01,2013-04-04 20:42:00,
2013-04-04 15:47:00,61.7,33.1,29.03,WNW,292,0.9,0.9,34,0.00,,---,0.00,VWS V14.01,2013-04-04 20:47:00,
2013-04-04 15:52:00,62.2,33.5,29.03,WNW,292,2.5,2.5,34,0.00,,---,0.00,VWS V14.01,2013-04-04 20:52:00,
2013-04-04 15:57:00,62.1,33.4,29.03,West,270,0.9,0.9,34,0.00,,---,0.00,VWS V14.01,2013-04-04 20:57:00,
2013-04-04 16:02:00,62.2,33.5,29.03,West,270,3.8,3.8,34,0.00,,---,0.00,VWS V14.01,2013-04-04 21:02:00,
2013-04-04 16:07:00,62.4,34.4,29.03,West,270,1.3,1.3,35,0.00,,---,0.00,VWS V14.01,2013-04-04 21:07:00,
2013-04-04 16:12:00,62.8,34.0,29.03,West,270,2.0,2.0,34,0.00,,---,0.00,VWS V14.01,2013-04-04 21:12:00,
2013-04-04 16:17:00,62.8,34.0,29.03,SW,225,1.6,2.7,34,0.00,,---,0.00,VWS V14.01,2013-04-04 21:17:00,
2013-04-04 16:23:00,62.4,34.4,29.03,SW,225,3.4,3.4,35,0.00,,---,0.00,VWS V14.01,2013-04-04 21:23:00,
2013-04-04 16:28:00,62.1,34.1,29.03,WNW,292,2.5,3.1,35,0.00,,---,0.00,VWS V14.01,2013-04-04 21:28:00,
2013-04-04 16:33:00,61.7,33.8,29.03,West,270,2.9,2.9,35,0.00,,---,0.00,VWS V14.01,2013-04-04 21:33:00,
2013-04-04 16:38:00,61.5,33.6,29.03,WNW,292,1.1,3.1,35,0.00,,---,0.00,VWS V14.01,2013-04-04 21:38:00,
2013-04-04 16:43:00,61.3,33.5,29.03,WNW,292,2.5,6.0,35,0.00,,---,0.00,VWS V14.01,2013-04-04 21:43:00,
2013-04-04 16:48:00,61.3,33.5,29.03,WNW,292,2.5,2.5,35,0.00,,---,0.00,VWS V14.01,2013-04-04 21:48:00,
2013-04-04 16:54:00,61.3,33.5,29.03,WNW,292,2.9,2.9,35,0.00,,---,0.00,VWS V14.01,2013-04-04 21:54:00,
2013-04-04 16:59:00,61.2,33.3,29.03,WNW,292,2.9,2.9,35,0.00,,---,0.00,VWS V14.01,2013-04-04 21:59:00,
2013-04-04 17:04:00,61.0,33.9,29.03,West,270,2.2,2.2,36,0.00,,---,0.00,VWS V14.01,2013-04-04 22:04:00,
2013-04-04 17:09:00,60.4,33.4,29.03,West,270,2.2,2.2,36,0.00,,---,0.00,VWS V14.01,2013-04-04 22:09:00,
2013-04-04 17:14:00,60.1,33.1,29.03,WSW,248,1.3,5.4,36,0.00,,---,0.00,VWS V14.01,2013-04-04 22:14:00,
2013-04-04 17:20:00,59.9,32.9,29.03,East,90,0.0,2.0,36,0.00,,---,0.00,VWS V14.01,2013-04-04 22:20:00,
2013-04-04 17:25:00,59.7,33.4,29.03,West,270,2.7,2.7,37,0.00,,---,0.00,VWS V14.01,2013-04-04 22:25:00,
2013-04-04 17:30:00,59.4,32.4,29.03,West,270,2.7,2.7,36,0.00,,---,0.00,VWS V14.01,2013-04-04 22:30:00,
2013-04-04 17:35:00,59.2,33.0,29.03,West,270,3.6,3.6,37,0.00,,---,0.00,VWS V14.01,2013-04-04 22:35:00,
2013-04-04 17:40:00,59.0,32.8,29.03,West,270,2.2,2.2,37,0.00,,---,0.00,VWS V14.01,2013-04-04 22:40:00,
2013-04-04 17:45:00,58.8,32.6,29.06,WSW,248,2.9,3.8,37,0.00,,---,0.00,VWS V14.01,2013-04-04 22:45:00,
2013-04-04 17:50:00,58.6,33.1,29.06,West,270,3.1,3.1,38,0.00,,---,0.00,VWS V14.01,2013-04-04 22:50:00,
2013-04-04 17:55:00,58.5,33.0,29.06,West,270,1.3,1.3,38,0.00,,---,0.00,VWS V14.01,2013-04-04 22:55:00,
2013-04-04 18:00:00,58.5,33.0,29.06,West,270,1.6,1.6,38,0.00,,---,0.00,VWS V14.01,2013-04-04 23:00:00,
2013-04-04 18:05:00,58.3,32.8,29.06,West,270,2.0,2.0,38,0.00,,---,0.00,VWS V14.01,2013-04-04 23:05:00,
2013-04-04 18:10:00,58.3,32.8,29.06,West,270,1.6,3.1,38,0.00,,---,0.00,VWS V14.01,2013-04-04 23:10:00,
2013-04-04 18:15:00,58.1,32.7,29.06,West,270,3.8,3.8,38,0.00,,---,0.00,VWS V14.01,2013-04-04 23:15:00,
2013-04-04 18:21:00,58.1,32.7,29.06,WSW,248,1.6,1.6,38,0.00,,---,0.00,VWS V14.01,2013-04-04 23:21:00,
2013-04-04 18:26:00,57.9,32.5,29.06,West,270,2.0,2.0,38,0.00,,---,0.00,VWS V14.01,2013-04-04 23:26:00,
2013-04-04 18:31:00,57.7,32.3,29.06,West,270,2.5,2.5,38,0.00,,---,0.00,VWS V14.01,2013-04-04 23:31:00,
2013-04-04 18:36:00,57.6,32.2,29.06,West,270,1.1,2.0,38,0.00,,---,0.00,VWS V14.01,2013-04-04 23:36:00,
2013-04-04 18:41:00,57.6,32.8,29.06,West,270,0.0,0.0,39,0.00,,---,0.00,VWS V14.01,2013-04-04 23:41:00,
2013-04-04 18:46:00,57.2,32.5,29.06,West,270,0.0,1.1,39,0.00,,---,0.00,VWS V14.01,2013-04-04 23:46:00,
2013-04-04 18:51:00,57.2,33.1,29.06,West,270,2.7,2.7,40,0.00,,---,0.00,VWS V14.01,2013-04-04 23:51:00,
2013-04-04 18:56:00,57.0,33.0,29.06,West,270,2.9,2.9,40,0.00,,---,0.00,VWS V14.01,2013-04-04 23:56:00,
2013-04-04 19:01:00,56.8,32.8,29.06,West,270,1.3,1.3,40,0.00,,---,0.00,VWS V14.01,2013-04-05 00:01:00,
2013-04-04 19:06:00,56.7,33.2,29.06,West,270,2.7,2.7,41,0.00,,---,0.00,VWS V14.01,2013-04-05 00:06:00,
2013-04-04 19:11:00,56.3,32.9,29.06,SW,225,2.2,2.2,41,0.00,,---,0.00,VWS V14.01,2013-04-05 00:11:00,
2013-04-04 19:16:00,55.9,32.0,29.06,SW,225,0.0,0.0,40,0.00,,---,0.00,VWS V14.01,2013-04-05 00:16:00,
2013-04-04 19:21:00,55.8,31.2,29.06,SW,225,1.1,3.1,39,0.00,,---,0.00,VWS V14.01,2013-04-05 00:21:00,
2013-04-04 19:26:00,55.4,30.9,29.06,West,270,2.7,3.1,39,0.00,,---,0.00,VWS V14.01,2013-04-05 00:26:00,
2013-04-04 19:31:00,55.4,30.9,29.06,SW,225,1.3,1.3,39,0.00,,---,0.00,VWS V14.01,2013-04-05 00:31:00,
2013-04-04 19:36:00,55.4,30.9,29.06,East,90,0.0,0.0,39,0.00,,---,0.00,VWS V14.01,2013-04-05 00:36:00,
2013-04-04 19:41:00,55.4,30.9,29.06,West,270,2.2,3.1,39,0.00,,---,0.00,VWS V14.01,2013-04-05 00:41:00,
2013-04-04 19:46:00,54.1,29.1,29.06,West,270,0.0,2.2,38,0.00,,---,0.00,VWS V14.01,2013-04-05 00:46:00,
2013-04-04 19:51:00,54.1,29.1,29.06,WSW,248,0.0,3.6,38,0.00,,---,0.00,VWS V14.01,2013-04-05 00:51:00,
2013-04-04 19:56:00,53.2,28.3,29.06,SW,225,0.9,1.1,38,0.00,,---,0.00,VWS V14.01,2013-04-05 00:56:00,
2013-04-04 20:01:00,53.1,28.1,29.06,SW,225,1.6,1.6,38,0.00,,---,0.00,VWS V14.01,2013-04-05 01:01:00,
2013-04-04 20:06:00,53.1,28.1,29.06,SW,225,1.1,1.1,38,0.00,,---,0.00,VWS V14.01,2013-04-05 01:06:00,
2013-04-04 20:11:00,53.1,28.1,29.06,SW,225,0.9,0.9,38,0.00,,---,0.00,VWS V14.01,2013-04-05 01:11:00,
2013-04-04 20:16:00,52.3,27.5,29.06,SW,225,2.0,2.7,38,0.00,,---,0.00,VWS V14.01,2013-04-05 01:16:00,
2013-04-04 20:21:00,52.3,27.5,29.06,WSW,248,1.3,1.3,38,0.00,,---,0.00,VWS V14.01,2013-04-05 01:21:00,
2013-04-04 20:26:00,51.8,27.6,29.06,East,90,0.0,0.0,39,0.00,,---,0.00,VWS V14.01,2013-04-05 01:26:00,
2013-04-04 20:31:00,51.8,27.6,29.09,WSW,248,0.0,4.7,39,0.00,,---,0.00,VWS V14.01,2013-04-05 01:31:00,
2013-04-04 20:36:00,51.6,28.1,29.09,SW,225,0.0,0.0,40,0.00,,---,0.00,VWS V14.01,2013-04-05 01:36:00,
2013-04-04 20:41:00,51.4,27.9,29.09,SW,225,0.0,1.3,40,0.00,,---,0.00,VWS V14.01,2013-04-05 01:41:00,
2013-04-04 20:46:00,51.4,27.9,29.09,SW,225,1.1,1.1,40,0.00,,---,0.00,VWS V14.01,2013-04-05 01:46:00,
2013-04-04 20:51:00,51.4,27.9,29.09,WSW,248,0.0,0.0,40,0.00,,---,0.00,VWS V14.01,2013-04-05 01:51:00,
2013-04-04 20:56:00,50.7,27.9,29.09,East,90,1.1,2.0,41,0.00,,---,0.00,VWS V14.01,2013-04-05 01:56:00,
2013-04-04 21:01:00,50.5,27.7,29.09,South,180,3.8,3.8,41,0.00,,---,0.00,VWS V14.01,2013-04-05 02:01:00,
2013-04-04 21:06:00,50.4,27.6,29.09,ESE,112,0.0,0.0,41,0.00,,---,0.00,VWS V14.01,2013-04-05 02:06:00,
2013-04-04 21:11:00,50.2,28.0,29.09,SW,225,0.0,0.0,42,0.00,,---,0.00,VWS V14.01,2013-04-05 02:11:00,
2013-04-04 21:16:00,49.8,28.2,29.09,SSW,202,0.0,0.0,43,0.00,,---,0.00,VWS V14.01,2013-04-05 02:16:00,
2013-04-04 21:21:00,49.8,28.2,29.09,West,270,1.3,1.3,43,0.00,,---,0.00,VWS V14.01,2013-04-05 02:21:00,
2013-04-04 21:26:00,49.6,28.6,29.09,SW,225,2.5,2.5,44,0.00,,---,0.00,VWS V14.01,2013-04-05 02:26:00,
2013-04-04 21:31:00,49.6,28.6,29.09,SSW,202,3.4,3.4,44,0.00,,---,0.00,VWS V14.01,2013-04-05 02:31:00,
2013-04-04 21:36:00,49.5,28.5,29.09,SSW,202,1.3,1.3,44,0.00,,---,0.00,VWS V14.01,2013-04-05 02:36:00,
2013-04-04 21:41:00,49.1,28.7,29.09,WSW,248,1.1,1.1,45,0.00,,---,0.00,VWS V14.01,2013-04-05 02:41:00,
2013-04-04 21:46:00,48.9,29.1,29.09,SW,225,1.1,3.4,46,0.00,,---,0.00,VWS V14.01,2013-04-05 02:46:00,
2013-04-04 21:51:00,48.7,28.9,29.09,SW,225,2.7,2.7,46,0.00,,---,0.00,VWS V14.01,2013-04-05 02:51:00,
2013-04-04 21:56:00,48.4,28.6,29.09,SW,225,0.0,0.0,46,0.00,,---,0.00,VWS V14.01,2013-04-05 02:56:00,
2013-04-04 22:01:00,48.2,28.9,29.09,WSW,248,3.4,3.4,47,0.00,,---,0.00,VWS V14.01,2013-04-05 03:01:00,
2013-04-04 22:06:00,48.0,29.3,29.09,WSW,248,2.9,2.9,48,0.00,,---,0.00,VWS V14.01,2013-04-05 03:06:00,
2013-04-04 22:11:00,47.7,29.0,29.09,WSW,248,0.0,0.0,48,0.00,,---,0.00,VWS V14.01,2013-04-05 03:11:00,
2013-04-04 22:16:00,47.5,28.8,29.09,SW,225,1.3,1.3,48,0.00,,---,0.00,VWS V14.01,2013-04-05 03:16:00,
2013-04-04 22:21:00,47.5,28.8,29.09,WSW,248,2.2,2.7,48,0.00,,---,0.00,VWS V14.01,2013-04-05 03:21:00,
2013-04-04 22:26:00,47.3,29.1,29.09,WSW,248,1.6,1.6,49,0.00,,---,0.00,VWS V14.01,2013-04-05 03:26:00,
2013-04-04 22:31:00,47.1,29.0,29.09,West,270,1.6,1.6,49,0.00,,---,0.00,VWS V14.01,2013-04-05 03:31:00,
2013-04-04 22:36:00,47.1,29.0,29.09,West,270,0.0,0.0,49,0.00,,---,0.00,VWS V14.01,2013-04-05 03:36:00,
2013-04-04 22:41:00,46.9,28.8,29.09,West,270,0.0,2.5,49,0.00,,---,0.00,VWS V14.01,2013-04-05 03:41:00,
2013-04-04 22:46:00,46.8,29.1,29.12,WSW,248,1.6,2.2,50,0.00,,---,0.00,VWS V14.01,2013-04-05 03:46:00,
2013-04-04 22:51:00,46.6,28.5,29.12,SW,225,0.0,2.7,49,0.00,,---,0.00,VWS V14.01,2013-04-05 03:51:00,
2013-04-04 22:56:00,46.4,28.8,29.12,SW,225,1.1,1.1,50,0.00,,---,0.00,VWS V14.01,2013-04-05 03:56:00,
2013-04-04 23:00:00,46.2,28.6,29.12,West,270,0.0,0.0,50,0.00,,---,0.00,VWS V14.01,2013-04-05 04:00:00,
2013-04-04 23:01:00,46.0,28.5,29.12,West,270,0.9,0.9,50,0.00,,---,0.00,VWS V14.01,2013-04-05 04:01:00,
2013-04-04 23:02:00,46.0,28.5,29.12,West,270,0.9,0.9,50,0.00,,---,0.00,VWS V14.01,2013-04-05 04:02:00,
2013-04-04 23:07:00,45.9,28.8,29.12,West,270,1.1,1.3,51,0.00,,---,0.00,VWS V14.01,2013-04-05 04:07:00,
2013-04-04 23:12:00,45.7,28.6,29.12,West,270,0.9,0.9,51,0.00,,---,0.00,VWS V14.01,2013-04-05 04:12:00,
2013-04-04 23:17:00,45.5,29.4,29.12,West,270,2.2,2.2,53,0.00,,---,0.00,VWS V14.01,2013-04-05 04:17:00,
2013-04-04 23:22:00,45.5,29.4,29.12,West,270,4.3,4.3,53,0.00,,---,0.00,VWS V14.01,2013-04-05 04:22:00,
2013-04-04 23:27:00,45.5,29.4,29.12,WSW,248,2.5,3.6,53,0.00,,---,0.00,VWS V14.01,2013-04-05 04:27:00,
2013-04-04 23:33:00,45.5,29.4,29.12,WSW,248,0.0,2.7,53,0.00,,---,0.00,VWS V14.01,2013-04-05 04:33:00,
2013-04-04 23:38:00,45.5,29.4,29.12,West,270,0.0,1.6,53,0.00,,---,0.00,VWS V14.01,2013-04-05 04:38:00,
2013-04-04 23:43:00,45.5,29.4,29.12,West,270,0.0,0.0,53,0.00,,---,0.00,VWS V14.01,2013-04-05 04:43:00,
2013-04-04 23:48:00,45.5,29.4,29.12,West,270,3.6,3.6,53,0.00,,---,0.00,VWS V14.01,2013-04-05 04:48:00,
2013-04-04 23:53:00,45.5,29.4,29.12,West,270,1.6,1.6,53,0.00,,---,0.00,VWS V14.01,2013-04-05 04:53:00,
2013-04-04 23:58:00,44.6,27.6,29.12,West,270,0.0,2.0,51,0.00,,---,0.00,VWS V14.01,2013-04-05 04:58:00,